カタログに戻る

STARLINK-33598

運用中通信VLEO
NORAD 62771·PAYLOAD·🇺🇸 United States

打ち上げ Jan 21, 2025 から Vandenberg Space Force Base

Loading…

次のパス (今後24時間)

TLE

最新Source: CelesTrak SupGP

元期: Sep 15, 2026, 02:39 UTC

1 62771C 25015P   26258.11090278  .00007428  00000+0  21947-3 0  2581
2 62771  53.1578 159.0176 0001354  77.8530 262.2680 15.34385625    15

AllMySatでSTARLINK-33598をリアルタイム追跡

Download on the App Store